www.pogodaiklimat.ru

Погода и климат >> Архив погоды >> Россия >> Белгородская область >> Валуйки


АРХИВ ПОГОДЫ в Валуйках

Время (UTC), дата Ветер
(напр.,м/с)
 
Видим.   Явления Облачность Т
(С)
Тd
(С)
f
(%)
Тe
(С)
Тes
(С)
Комфортность P
(гПа)
Po
(гПа)
Тmin
(С)
Tmax
(С)
R
(мм)
R24
(мм)
S
(см)
00 18.03 штиль 0 10 км 9/0
[Ac trans]
+1.8 +0.7 92 +1 +1 1019.9 1005.8
03 18.03 СВ 1 2000 м дымка 10/10 300 м
[St]
+1.1 +0.6 96 -1 -1 1021.4 1007.2 +0.8
06 18.03 В 2 500 м туман ?/? +1.1 +1.1 100 -3 -3 1022.3 1008.1 +0.8
09 18.03 ЮВ 2 4000 м дымка {туман} 10/10 300 м
[St]
+3.4 +2.9 97 0 0 1024.0 1010.0
12 18.03 ЮВ 2 10 км {туман} 4/1 1000 м
[Cu hum Ci fib]
+8.8 +4.5 74 +7 +12 1023.7 1009.9
15 18.03 В 2 20 км 6/0
[Ac trans Ci fib]
+8.3 +4.3 76 +7 +7 1023.4 1009.6
18 18.03 В 2 10 км ясно +6.1 +3.2 82 +4 +4 1024.8 1010.8 +9.4
21 18.03 В 2 10 км 6/0
[Ac trans]
+5.4 +2.5 82 +3 +3 1025.6 1011.6
00 19.03 В 2 10 км 3/0
[Ci fib]
+4.3 +2.0 85 +2 +2 1026.1 1012.0
03 19.03 ЮВ 2 10 км 1/0
[Ci fib]
+2.0 +0.7 91 -1 -1 1026.6 1012.4 +1.2
06 19.03 ЮВ 1 10 км 1/0
[Ci fib]
+4.1 +1.5 83 +3 +7 1027.0 1012.9 +0.8
09 19.03 Ю 3 20 км 4/3 1000 м
[Cu hum Ci fib]
+11.7 +2.5 53 +10 +16 1026.3 1012.6
12 19.03 Ю 4 20 км 6/3 1000 м
[Cu hum Ci fib]
+12.9 +1.5 46 +11 +14 1025.4 1011.7
15 19.03 Ю 2 20 км 3/0
[Ac trans]
+12.2 +1.1 47 +12 +12 1025.1 1011.4
18 19.03 ЮВ 2 10 км 4/0
[Ac trans]
+8.0 +2.3 67 +6 +6 1025.9 1012.0 +13.2
21 19.03 ЮВ 2 10 км ясно +5.0 +2.0 81 +2 +2 1026.4 1012.3
00 20.03 ЮВ 2 10 км 3/0
[Ci fib]
+2.6 +0.8 88 -1 -1 1026.6 1012.4
03 20.03 В 1 10 км 3/0
[Ci fib]
+1.0 -0.1 92 -1 -1 1026.5 1012.2 +1.0
06 20.03 ЮВ 2 500 м туман ?/? +0.3 +0.3 100 -4 -4 1027.1 1012.8 -0.0
09 20.03 Ю 2 4000 м дымка {туман} 10/0
[As op]
+4.0 +2.8 92 +1 +3 1026.9 1012.8
12 20.03 Ю 2 20 км {туман} 4/0
[Ac trans Ci fib]
+9.8 +4.6 70 +8 +13 1025.4 1011.6
15 20.03 Ю 1 20 км 8/0
[Ac trans]
+10.9 +4.6 65 +11 +11 1024.0 1010.3
18 20.03 СЗ 2 10 км 10/0
[Ac As]
+8.1 +4.5 78 +6 +6 1024.6 1010.7 +11.7
21 20.03 СЗ 2 10 км слаб. дождь 10/10 500 м
[Frnb Ns]
+3.8 +2.3 90 +1 +1 1025.7 1011.6
00 21.03 СЗ 2 10 км {дождь} 10/0
[Ac As]
+2.8 +1.5 91 -0 -0 1025.9 1011.7
03 21.03 штиль 0 10 км 6/0
[Ac trans]
+0.7 -0.1 94 -1 -1 1025.6 1011.3 +0.4 3
06 21.03 З 1 500 м туман ?/? +1.1 +1.1 100 -1 -1 1025.5 1011.2 +0.4 3
09 21.03 З 4 20 км {туман} 6/3 1000 м
[Cu hum Ci sp]
+7.1 -1.7 54 +4 +8 1023.8 1009.9
12 21.03 З 4-10
{10}
20 км {туман} 9/3 600 м
[Cb cap Ac trans]
+8.1 -1.4 51 +5 +7 1022.0 1008.2
15 21.03 ЮЗ 2
{10}
20 км {дождь} 10/0
[Ac As]
+4.2 +1.1 80 +2 +2 1021.7 1007.7 0.0
18 21.03 СЗ 2 10 км {дождь} 10/0
[Ac As]
+3.3 +0.7 83 0 0 1022.9 1008.8 +8.5 0.3
21 21.03 С 2 10 км {ливн. осадки} 10/0
[Ac As]
+2.1 +1.1 93 -1 -1 1023.2 1009.1
00 22.03 СЗ 2 10 км {ливн. осадки} 10/0
[As op]
+2.3 +0.1 85 -1 -1 1023.7 1009.6
03 22.03 СЗ 1 10 км 10/0
[Ac As]
+2.0 +0.7 91 0 0 1023.2 1009.1 +1.5 0.8
06 22.03 З 2 20 км 8/0
[Ac trans Ci fib]
+3.3 +0.9 84 0 +3 1021.3 1007.3 +1.5 0.5
09 22.03 ЮЗ 4 20 км 6/3 1000 м
[Sc Ci fib]
+7.6 -3.8 44 +5 +9 1018.4 1004.7
12 22.03 Ю 3 10 км слаб. ливневой дождь 9/4 600 м
[Cb cap Ac trans]
+5.7 +2.2 78 +3 +4 1013.8 1000.0
15 22.03 ЮЗ 4 4000 м слаб. ливневой дождь 10/10 300 м
[Cb cap]
+6.0 +4.9 93 +2 +2 1008.5 994.8 0.6
18 22.03 СЗ 5-10
{13}
10 км {ливн. осадки} 9/0
[Ac trans]
+4.0 +1.7 85 -1 -1 1009.0 995.2 +8.6 1
21 22.03 СЗ 4
{13}
10 км {ливн. осадки} 6/0
[Ac trans]
+1.5 -1.0 83 -4 -4 1010.1 996.1
00 23.03 СЗ 3 10 км {ливн. осадки} ясно +0.8 -3.1 75 -4 -4 1010.1 996.0
03 23.03 СЗ 4 10 км 8/0
[Ac trans]
+0.1 -3.6 76 -5 -5 1009.5 995.5 -0.3 0.7
06 23.03 СЗ 4 4000 м слаб. снег 10/10 330 м
[Frnb Ns]
0.0 -1.2 92 -6 -6 1009.6 995.5 -0.5 0.8 1
09 23.03 С 5
{10}
10 км {снег} 10/10 700 м
[Sc]
+2.1 -0.7 82 -3 -3 1010.7 996.8
12 23.03 С 4
{12}
20 км {снег} 10/10 840 м
[Sc]
+4.1 -3.1 59 0 0 1012.5 998.6
15 23.03 С 4
{12}
20 км 10/0
[Ac As]
+3.7 -2.6 63 -0 -0 1014.4 1000.5 1
18 23.03 С 4 10 км 9/0
[Ac trans]
+2.9 -3.3 64 -1 -1 1015.6 1001.6 +4.2 0.9
21 23.03 С 4 10 км 10/0
[As op]
+2.3 -2.0 73 -2 -2 1016.0 1002.0
00 24.03 С 3 10 км 9/0
[Ac trans]
+2.0 -2.0 75 -2 -2 1016.0 1002.0
03 24.03 СЗ 2 10 км 10/0
[As op]
+1.0 -1.9 81 -2 -2 1015.8 1001.7 +1.0
06 24.03 СЗ 3 20 км 10/0
[Ac As]
+2.1 -1.3 78 -2 -1 1016.2 1002.2 +1.0
09 24.03 С 2 20 км 9/3 600 м
[Cb cap Ac trans]
+4.1 -1.7 66 +2 +5 1015.2 1001.3
12 24.03 С 3 20 км 9/3 600 м
[Cb cap Ac trans]
+5.1 -3.5 54 +2 +4 1014.5 1000.6
15 24.03 СЗ 2 20 км 10/0
[As op]
+5.1 -2.8 57 +3 +3 1013.3 999.4
18 24.03 З 1 10 км 10/0
[Ac As]
+3.3 -1.4 71 +2 +2 1012.8 998.8 +5.7
21 24.03 З 2 10 км 8/0
[Ac trans]
+2.7 -1.2 75 -0 -0 1011.8 997.8

 

Местоположение метеостанции Валуйки (Белгородская область, Россия): широта 50.22 долгота 38.10 высота над уровнем моря 112 м.

В архиве по умолчанию представлена погода в Валуйках за последнюю неделю. Архивные данные за месяц целиком и за предыдущие месяцы, начиная с января 2011 года, Вы можете получить, выбрав интересующий диапазон дат из раскрывающегося списка и нажав кнопку "Ввод!".


*Определитесь, кто Вы:
робот инопланетянин человек

Внимание! Время в таблицах - всемирное. Для получения местного времени необходимо прибавить поправку, которая равна 3 ч.

Смотрите также архив погоды в соседних городах и на ближайших метеорологических станциях:

Погода в Новопскове (Луганская область, Украина) (25 км)
Погода в Троицком (Луганская область, Украина) (35 км)
Погода в Великом Бурлуке (Харьковская область, Украина) (54 км)
Погода в Новом Осколе (Белгородская область, Россия) (61 км)
Погода в Купянске (Харьковская область, Украина) (72 км)
Погода в Сватово (Луганская область, Украина) (89 км)
Погода в Белгороде (Белгородская область, Россия) (117 км)
Погода в Богородицком (Белгородская область, Россия) (118 км)
Погода в Старом Осколе (Белгородская область, Россия) (121 км)
Погода в Изюме (Харьковская область, Украина) (129 км)

Пояснения к столбцам:

Ветер - указаны скорость ветра в м/с - средняя за 10 мин, порывы в срок и между сроками (в фигурных скобках) и направление, откуда дует ветер: С - северный, СВ - северо-восточный, В - восточный, ЮВ - юго-восточный, Ю - южный, ЮЗ - юго-западный, З - западный, СЗ - северо-западный.
Видимость - горизонтальная дальность видимости в метрах или километрах. При видимости от 1 до 10 км при отсутствии осадков обычно наблюдается дымка, при ухудшении видимости до 1 км и менее - туман. В сухую погоду видимость может ухудшаться дымом, пылью или мглою.
Явления - указаны атмосферные явления, наблюдавшиеся в срок или в последний час перед сроком; фигурными скобками обозначены явления, наблюдавшиеся между сроками (за 1-3 часа до срока); квадратными скобками обозначены град или гололедные отложения с указанием их диаметра в мм.
Облачность - указаны через наклонную черту общая и нижняя облачность в баллах и высота нижней границы облаков в метрах; квадратными скобками обозначены формы облаков: Ci - перистые, Cs - перисто-слоистые, Cc - перисто-кучевые, Ac - высококучевые, As - высокослоистые, Sc - слоисто-кучевые, Ns - слоисто-дождевые, Cu - кучевые, Cb - кучево-дождевые. Подробнее классификацию облаков см. в Атласе облаков (PDF).
T - Температура воздуха - температура, измеренная на высоте 2 м над землей.
Td - Температура точки росы - температура, при понижении до которой содержащийся в воздухе водяной пар достигнет насыщения.
f - Относительная влажность воздуха - влажноcть воздуха, измеренная на высоте 2 м над землей.
Te - Эффективная температура - температура, которую ощущает одетый по сезону человек в тени. Характеристика душности погоды. При расчете учитывается влияние влажности воздуха и скорости ветра на теплоощущения человека.
Tes - Эффективная температура на солнце - температура, которую ощущает человек, с поправкой на солнечный нагрев. Характеристика знойности погоды. Зависит от высоты солнца над горизонтом, облачности и скорости ветра. Ночью, в пасмурную погоду, а также при ветре 12 м/с и более поправка равна нулю.
P - Атмосферное давление - приведенное к уровню моря атмосферное давление.
Po - Атмосферное давление - измеренное на уровне метеостанции атмосферное давление.
Tmin - Минимальная температура - минимум температуры воздуха на высоте 2 м над землей.
Tmax - Максимальная температура - максимум температуры воздуха на высоте 2 м над землей.
R - Количество осадков - Количество выпавших осадков за период времени, мм. При наведении курсора мыши на число - период времени, за который выпало указанное количество осадков.
R24 - Количество осадков - Количество выпавших осадков за 24 часа, мм.
S - Снежный покров - Высота снежного покрова, см. При наведении курсора мыши на число - состояние снежного покрова и степень покрытия местности в баллах.